Regional Weather Roundup
Issued by NWS Newport/Morehead, NC

Current Version | Previous Version | Text Only | Print | Product List | Glossary On
Versions: 1 2 3 4 5 6 7 8 9 10 11 12 13 14 15 16 17 18 19 20 21 22 23 24 25 26 27 28 29 30 31 32 33 34 35 36 37 38 39 40 41 42 43 44 45 46 47 48 49 50
000
ASUS42 KMHX 122325
RWRMHX
WEATHER ROUNDUP FOR EASTERN NORTH CAROLINA
NATIONAL WEATHER SERVICE NEWPORT/MOREHEAD CITY NC
600 PM EST TUE DEC 12 2017

NOTE: "FAIR" INDICATES FEW OR NO CLOUDS BELOW 12,000 FEET
WITH NO SIGNIFICANT WEATHER AND/OR OBSTRUCTIONS TO VISIBILITY

NCZ015>017-031-032-045>047-102-103-130000-
NORTH COAST

CITY           SKY/WX    TMP DP  RH WIND       PRES   REMARKS
EDENTON        CLOUDY    51  38  60 W7        29.60R
ELIZABETH CITY CLOUDY    49  38  65 W8        29.57R
KITTY HAWK     PTCLDY    48  39  71 W3        29.55S
MANTEO         PTCLDY    48  38  68 NW7       29.56S

$$

NCZ045>047-081-094-103-104-130000-
CENTRAL COAST

CITY           SKY/WX    TMP DP  RH WIND       PRES   REMARKS
FRISCO         CLOUDY    52  43  71 NW13G22   29.54S

$$

NCZ095-097-098-100-101-130000-
SOUTHERN COAST

CITY           SKY/WX    TMP DP  RH WIND       PRES   REMARKS
BEAUFORT       CLEAR     50  40  68 NW14      29.60R
CEDAR ISLAND   NOT AVBL
JACKSONVILLE   CLEAR     49  39  68 W9        29.63R
PINEY ISLAND     N/A    N/A N/A N/A W12       29.58S
WILMINGTON     CLEAR     52  36  54 W12       29.66R


$$

NCZ011>013-027>030-043-044-078>080-089-090>093-098-130000-
COASTAL PLAIN

CITY           SKY/WX    TMP DP  RH WIND       PRES   REMARKS
AHOSKIE        CLOUDY    47  29  50 NW3       29.61R
CLINTON        CLEAR     49  34  56 W3        29.66S
ELIZABETHTOWN  NOT AVBL
GOLDSBORO      PTCLDY    50  28  43 W8        29.62R
GREENVILLE     PTCLDY    48  32  53 NW6       29.65S
HAVELOCK       CLEAR     50  39  66 W9        29.62R
KENANSVILLE    PTCLDY    48  34  57 W3        29.65R
KINSTON        MOCLDY    50  32  50 W6        29.63R
NEW BERN       CLEAR     47  37  68 W5        29.62R
RICHLANDS      MOCLDY    47  38  71 SW3       29.64R
ROCKY MOUNT    MOCLDY    48  28  46 W9        29.63R
WASHINGTON     CLOUDY    49  32  52 NW6       29.61R
WHITEVILLE     CLEAR     49  36  60 CALM      29.67S

$$

AMZ130-135-150-152-154-156-158-170-250-252-270-ANZ085-086-088-633-658-670-130000-
MARINE OBSERVATIONS

STATION/POSITION TIME  TEMP    WIND        PRES    WAVE   SWELL
                       AIR SEA DIR/SP/G            HT/PER HT/PER
                 (UTC) (F)     (DEG/KT/KT) (MB)    (FT/S) (FT/S)
CHESAPEAKE LIGHT NOT AVBL
64 E VA BEACH    2250   53 60  300/ 21/ 27  999.4    5/ 7   3/ 7
DUCK             2300   49 56  280/  9/ 11 1000.4
2 E DUCK         2300      56                N/A     2/ 8
OREGON INLET     2300   49 47  290/ 12/ 18 1000.5
13E OREGON INLT  2248      59                N/A     5/ 8   3/ 8
HATTERAS CG      2300   53 57  310/ 22/ 25  999.9
DIAMOND BUOY     2310   57 73  300/ 25/ 35 1000.0
CAPE LOOKOUT     2300          300/ 19/ 23 1001.9
BEAUFORT LAB     2300   52 53  310/  8/ 13 1002.2
30 SE NEW RVR IN 2208   59 63  270/ 21/ 27 1001.8
30 SE NEW RVR IN 2300      63                N/A     8/ 8
27 SE WRIGHTSVLE 2308   58 65  290/ 21/ 31 1003.7
5 SE WRIGHTSVLE  2308   56 58  300/ 12/ 17 1003.6
225 S CAPE HAT   2250   71 75  220/ 29/ 37 1003.9   10/ 7   2/16
41 SE CHARLESTON 2300   62 75  280/ 25/ 33 1006.7

$$




USA.gov is the U.S. government's official web portal to all federal, state and local government web resources and services.